Location: Arrington
(35.8681°N, 86.7092°W)
Time: 04:35:27
(UTC+00:00)

ATLAS 2AS CENTAUR R/B - Pass Details

Date: 01 March 2020
Orbit: 929 x 1283 km, 63.7° (Epoch: 03 April)

Event Time Altitude Azimuth Distance (km) Brightness Sun altitude
Rises 10:53:52 0° 328° (NNW) 4,133 5.5 -17.5°
Reaches altitude 10° 10:56:43 10° 329° (NNW) 3,121 4.9 -16.9°
Maximum altitude 11:04:12 89° 53° (NE) 1,119 2.8 -15.4°
Drops below altitude 10° 11:10:59 10° 150° (SSE) 2,845 5.3 -14.0°
Sets 11:13:29 0° 151° (SSE) 3,749 6.0 -13.5°
